Location: Ballingbuur
(53.0000°N, 5.7667°E)
Time: 06:35:08
(UTC+00:00)

Cosmos 1782 - Pass Details

Date: 29 November 2020
Orbit: 537 x 551 km, 82.5° (Epoch: 23 January)

Event Time Altitude Azimuth Distance (km) Brightness Sun altitude
Exits shadow 05:50:24 17° 255° (WSW) 1,438 4.4 -13.4°
Drops below altitude 10° 05:52:12 10° 230° (SW) 1,829 5.2 -13.2°
Sets 05:54:51 0° 212° (SSW) 2,718 6.2 -12.8°
